TimeCDT,TemperatureF,Dew PointF,Humidity,Sea Level PressureIn,VisibilityMPH,Wind Direction,Wind SpeedMPH,Gust SpeedMPH,PrecipitationIn,Events,Conditions,WindDirDegrees,DateUTC
12:15 AM,64.4,44.6,49,29.75,10.0,SSE,21.9,28.8,N/A,,Clear,150,2013-09-23 05:15:00
12:35 AM,64.4,44.6,49,29.75,10.0,SE,23.0,32.2,N/A,,Clear,140,2013-09-23 05:35:00
12:55 AM,64.4,44.6,49,29.76,10.0,SE,20.7,27.6,N/A,,Clear,140,2013-09-23 05:55:00
1:15 AM,64.4,44.6,49,29.76,10.0,SE,19.6,-,N/A,,Clear,140,2013-09-23 06:15:00
1:35 AM,62.6,44.6,52,29.76,10.0,SE,20.7,-,N/A,,Clear,140,2013-09-23 06:35:00
1:55 AM,62.6,44.6,52,29.76,10.0,SE,21.9,26.5,N/A,,Clear,140,2013-09-23 06:55:00
2:15 AM,62.6,44.6,52,29.74,10.0,SE,19.6,25.3,N/A,,Clear,140,2013-09-23 07:15:00
2:35 AM,62.6,44.6,52,29.74,10.0,SE,19.6,24.2,N/A,,Clear,140,2013-09-23 07:35:00
2:55 AM,62.6,44.6,52,29.77,10.0,SSE,15.0,-,N/A,,Clear,150,2013-09-23 07:55:00
3:15 AM,62.6,44.6,52,29.79,10.0,SSW,13.8,-,N/A,,Clear,200,2013-09-23 08:15:00
3:35 AM,60.8,44.6,55,29.77,10.0,SSE,13.8,-,N/A,,Clear,150,2013-09-23 08:35:00
3:55 AM,60.8,44.6,55,29.76,10.0,SE,11.5,-,N/A,,Clear,140,2013-09-23 08:55:00
4:15 AM,60.8,44.6,55,29.75,10.0,ESE,12.7,-,N/A,,Clear,120,2013-09-23 09:15:00
4:35 AM,60.8,44.6,55,29.73,10.0,SE,11.5,-,N/A,,Clear,130,2013-09-23 09:35:00
4:55 AM,59.0,44.6,59,29.73,10.0,SE,10.4,-,N/A,,Clear,130,2013-09-23 09:55:00
5:15 AM,60.8,44.6,55,29.72,10.0,ESE,13.8,-,N/A,,Partly Cloudy,120,2013-09-23 10:15:00
5:35 AM,60.8,44.6,55,29.70,10.0,SE,13.8,-,N/A,,Clear,130,2013-09-23 10:35:00
5:55 AM,60.8,44.6,55,29.69,10.0,ESE,15.0,-,N/A,,Partly Cloudy,120,2013-09-23 10:55:00
6:35 AM,59.0,44.6,59,29.66,10.0,ESE,13.8,-,N/A,,Partly Cloudy,110,2013-09-23 11:35:00
6:55 AM,60.8,44.6,55,29.67,10.0,ESE,17.3,-,N/A,,Scattered Clouds,120,2013-09-23 11:55:00
7:15 AM,60.8,44.6,55,29.68,10.0,SE,15.0,-,N/A,,Partly Cloudy,140,2013-09-23 12:15:00
7:35 AM,60.8,44.6,55,29.68,10.0,SSE,15.0,-,N/A,,Partly Cloudy,150,2013-09-23 12:35:00
7:55 AM,60.8,44.6,55,29.69,10.0,SE,15.0,-,N/A,,Scattered Clouds,140,2013-09-23 12:55:00
8:15 AM,60.8,46.4,59,29.69,10.0,SSE,11.5,-,N/A,,Mostly Cloudy,150,2013-09-23 13:15:00
8:35 AM,62.6,46.4,55,29.70,10.0,SSE,16.1,-,N/A,,Overcast,150,2013-09-23 13:35:00
8:55 AM,62.6,44.6,52,29.70,10.0,SSE,15.0,20.7,N/A,,Partly Cloudy,150,2013-09-23 13:55:00
9:15 AM,64.4,46.4,52,29.70,10.0,SSE,18.4,23.0,N/A,,Clear,150,2013-09-23 14:15:00
9:35 AM,66.2,46.4,49,29.71,10.0,South,20.7,24.2,N/A,,Clear,170,2013-09-23 14:35:00
9:55 AM,69.8,46.4,43,29.71,10.0,South,20.7,28.8,N/A,,Clear,180,2013-09-23 14:55:00
10:15 AM,69.8,46.4,43,-9999,10.0,South,26.5,29.9,N/A,,Clear,190,2013-09-23 15:15:00
10:35 AM,71.6,46.4,41,29.71,10.0,SSW,23.0,32.2,N/A,,Clear,210,2013-09-23 15:35:00
10:55 AM,73.4,46.4,38,29.72,10.0,SSW,23.0,29.9,N/A,,Clear,210,2013-09-23 15:55:00
11:15 AM,75.2,46.4,36,29.72,10.0,WSW,19.6,26.5,N/A,,Clear,240,2013-09-23 16:15:00
11:35 AM,75.2,46.4,36,29.73,10.0,West,20.7,25.3,N/A,,Clear,270,2013-09-23 16:35:00
11:55 AM,75.2,46.4,36,29.73,10.0,West,17.3,26.5,N/A,,Clear,280,2013-09-23 16:55:00
12:15 PM,77.0,44.6,32,29.74,10.0,WNW,21.9,31.1,N/A,,Clear,300,2013-09-23 17:15:00
12:35 PM,75.2,44.6,34,29.75,10.0,West,13.8,26.5,N/A,,Clear,270,2013-09-23 17:35:00
12:55 PM,77.0,46.4,34,29.76,10.0,WNW,21.9,25.3,N/A,,Clear,300,2013-09-23 17:55:00
1:15 PM,77.0,44.6,32,29.76,10.0,WNW,20.7,33.4,N/A,,Clear,290,2013-09-23 18:15:00
1:35 PM,78.8,44.6,30,29.76,10.0,WNW,24.2,29.9,N/A,,Clear,290,2013-09-23 18:35:00
1:55 PM,78.8,44.6,30,29.76,10.0,WNW,15.0,25.3,N/A,,Clear,300,2013-09-23 18:55:00
2:15 PM,78.8,44.6,30,29.75,10.0,WNW,19.6,26.5,N/A,,Clear,290,2013-09-23 19:15:00
2:35 PM,78.8,44.6,30,29.75,10.0,WNW,16.1,27.6,N/A,,Clear,300,2013-09-23 19:35:00
2:55 PM,78.8,44.6,30,29.76,10.0,West,16.1,-,N/A,,Clear,260,2013-09-23 19:55:00
3:15 PM,80.6,44.6,28,29.76,10.0,WNW,13.8,23.0,N/A,,Clear,300,2013-09-23 20:15:00
3:35 PM,80.6,44.6,28,29.77,10.0,West,12.7,21.9,N/A,,Clear,280,2013-09-23 20:35:00
3:55 PM,80.6,44.6,28,29.78,10.0,WNW,13.8,19.6,N/A,,Partly Cloudy,290,2013-09-23 20:55:00
4:15 PM,80.6,44.6,28,29.78,10.0,WNW,12.7,20.7,N/A,,Scattered Clouds,290,2013-09-23 21:15:00
4:35 PM,80.6,44.6,28,29.79,10.0,WNW,13.8,21.9,N/A,,Partly Cloudy,300,2013-09-23 21:35:00
4:55 PM,80.6,42.8,26,29.79,10.0,NW,12.7,-,N/A,,Partly Cloudy,310,2013-09-23 21:55:00
5:15 PM,80.6,42.8,26,29.80,10.0,WNW,15.0,21.9,N/A,,Scattered Clouds,300,2013-09-23 22:15:00
5:35 PM,78.8,42.8,28,29.81,10.0,NNW,18.4,23.0,N/A,,Mostly Cloudy,340,2013-09-23 22:35:00
5:55 PM,78.8,42.8,28,29.83,10.0,NNW,19.6,25.3,N/A,,Scattered Clouds,340,2013-09-23 22:55:00
6:15 PM,75.2,42.8,31,29.85,10.0,NNW,19.6,26.5,N/A,,Partly Cloudy,330,2013-09-23 23:15:00
6:35 PM,75.2,42.8,31,29.85,10.0,NNW,18.4,24.2,N/A,,Partly Cloudy,340,2013-09-23 23:35:00
6:55 PM,75.2,42.8,31,29.86,10.0,NNW,17.3,-,N/A,,Partly Cloudy,340,2013-09-23 23:55:00
7:15 PM,73.4,42.8,33,29.87,10.0,North,15.0,23.0,N/A,,Clear,350,2013-09-24 00:15:00
7:35 PM,73.4,42.8,33,29.88,10.0,NNW,12.7,-,N/A,,Clear,340,2013-09-24 00:35:00
7:55 PM,71.6,42.8,35,29.89,10.0,NNW,12.7,-,N/A,,Clear,340,2013-09-24 00:55:00
8:15 PM,69.8,42.8,38,29.90,10.0,NNW,6.9,-,N/A,,Clear,340,2013-09-24 01:15:00
8:35 PM,68.0,41.0,37,29.91,10.0,NNW,6.9,-,N/A,,Clear,340,2013-09-24 01:35:00
8:55 PM,66.2,42.8,43,29.92,10.0,NNW,4.6,-,N/A,,Clear,340,2013-09-24 01:55:00
9:15 PM,64.4,41.0,42,29.93,10.0,NW,3.5,-,N/A,,Clear,320,2013-09-24 02:15:00
9:35 PM,62.6,42.8,48,29.94,10.0,NNW,5.8,-,N/A,,Clear,340,2013-09-24 02:35:00
9:55 PM,60.8,42.8,52,29.95,10.0,NNW,9.2,-,N/A,,Partly Cloudy,340,2013-09-24 02:55:00
10:15 PM,62.6,42.8,48,29.96,10.0,NNW,8.1,-,N/A,,Mostly Cloudy,330,2013-09-24 03:15:00
10:35 PM,62.6,44.6,52,29.96,10.0,North,8.1,-,N/A,,Mostly Cloudy,350,2013-09-24 03:35:00
10:55 PM,60.8,42.8,52,29.97,10.0,NNW,5.8,-,N/A,,Partly Cloudy,340,2013-09-24 03:55:00
11:15 PM,57.2,42.8,59,29.98,10.0,NW,4.6,-,N/A,,Clear,320,2013-09-24 04:15:00
11:35 PM,57.2,42.8,59,29.98,10.0,NW,4.6,-,N/A,,Scattered Clouds,310,2013-09-24 04:35:00
11:55 PM,55.4,42.8,63,29.99,10.0,NW,10.4,-,N/A,,Partly Cloudy,320,2013-09-24 04:55:00